www.pogodaiklimat.ru

Погода и климат >> Архив погоды >> Колумбия >> Valledupar


ПОГОДА в Valledupar

  • Прогноз погоды в Valledupar
  • Монитор погоды в Valledupar
  • Климат города

АРХИВ ПОГОДЫ в Valledupar

Время (UTC), дата Ветер
(напр.,м/с)
 
Видим.   Явления Облачность Т
(С)
Тd
(С)
f
(%)
Тe
(С)
Тes
(С)
Комфортность P
(гПа)
Po
(гПа)
Тmin
(С)
Tmax
(С)
R
(мм)
R24
(мм)
S
(см)
12 15.10 СВ 3 15 км мгла 6/1 600 м
[Cu Sc Ac trans Cs]
+25.6 +22.2 82 +33 +34 очень
душно
1012.1 1011.6 +24.4
15 15.10 В 3 15 км мгла 4/1 <50 м
[Cu Sc Cs]
+31.2 +22.3 59 +40 +51 опасность
солнечного
удара
1012.2 1011.7
18 15.10 В 4 15 км мгла 5/1 600 м
[Cu Sc Cs]
+33.6 +21.7 50 +42 +52 опасность
перегрева
1009.1 1008.6
21 15.10 штиль 0 15 км мгла 8/1 600 м
[Cu Sc Ac trans Cs]
+33.6 +25.1 61 +47 +50 опасность
перегрева
1007.6 1007.1
00 16.10 штиль 0 15 км слабая морось 8/5 450 м
[Cu Sc Ac As Cs]
+29.1 +26.2 84 +44 +44 опасность
перегрева
1009.6 1009.1 +35.7
12 16.10 СВ 3 15 км мгла 8/3 300 м
[Sc Ac trans Cs]
+26.6 +23.0 81 +36 +36 очень
душно
1011.6 1011.1 +25.5 0.4
15 16.10 СВ 3 15 км мгла 4/1 450 м
[Cu hum Ci sp]
+31.2 +24.2 66 +43 +53 опасность
перегрева
1012.2 1011.7
21 16.10 Ю 3 15 км мгла 6/3 600 м
[Cu Sc Ac trans Ci sp]
+33.0 +23.0 56 +43 +45 опасность
перегрева
1007.7 1007.2
00 17.10 СВ 4 15 км мгла 9/3 600 м
[Cu med, cong Ac As Cs]
+29.5 +23.0 68 +39 +39 очень
душно
1010.0 1009.5 +36.1
12 17.10 С 3 15 км мгла 3/0
[Ci sp]
+26.6 +24.1 86 +37 +38 очень
душно
1011.0 1010.5 +25.4
15 17.10 В 3 15 км мгла 3/1 600 м
[Cu Sc Ci sp]
+31.4 +24.7 68 +45 +55 опасность
перегрева
1011.7 1011.2
18 17.10 Ю 2 15 км мгла 4/1 600 м
[Cu Sc Ci sp]
+35.8 +22.7 47 +45 +60 опасность
перегрева
1008.7 1008.2
21 17.10 штиль 0 15 км осадки на расстоянии 9/3 450 м
[Cu med, cong Ac As Cs]
+35.4 +22.8 48 +45 +47 опасность
перегрева
1007.1 1006.6
00 18.10 СВ 4 15 км зарница 10/4 450 м
[Cu med, cong Ac As Cs]
+31.4 +22.9 61 +42 +42 опасность
перегрева
1009.3 1008.8 +37.6
12 18.10 В 3 8000 м мгла 8/1 300 м
[Sc Cs]
+26.6 +24.1 86 +37 +38 очень
душно
1011.8 1011.3 +26.0
15 18.10 СВ 5 15 км мгла 6/1 600 м
[Cu Sc Cs]
+31.6 +24.9 68 +45 +51 опасность
перегрева
1011.5 1011.0
18 18.10 штиль 0 15 км мгла 6/1 600 м
[Cu Sc Cs]
+34.5 +22.3 49 +43 +62 опасность
перегрева
1008.9 1008.4
21 18.10 В 4 15 км мгла 9/3 600 м
[Cu med, cong Ac As Cs]
+32.6 +23.9 60 +44 +45 опасность
перегрева
1006.7 1006.2
00 19.10 СВ 4 15 км мгла 10/3 600 м
[Cu Sc Ac As Cs]
+28.3 +21.1 65 +36 +36 очень
душно
1010.5 1010.0 +36.8
12 19.10 штиль 0 15 км мгла 6/1 600 м
[Cu Sc Ac As Cs]
+24.7 +23.5 93 +33 +34 очень
душно
1013.0 1012.5 +24.4
15 19.10 штиль 0 15 км мгла 6/1 600 м
[Cu Sc Ac As Cs]
+30.9 +23.1 63 +41 +54 опасность
перегрева
1012.8 1012.3
18 19.10 штиль 0 15 км мгла 6/3 600 м
[Cu Sc Cs]
+33.6 +23.9 57 +45 +60 опасность
перегрева
1009.7 1009.2
21 19.10 СВ 4 15 км мгла 9/4 450 м
[Cu med, cong Cs]
+32.0 +24.2 63 +44 +45 опасность
перегрева
1008.0 1007.5
12 20.10 штиль 0 8000 м туман поземный 6/3 300 м
[Sc Cs]
+25.6 +23.1 86 +34 +35 очень
душно
1011.4 1010.9 +24.9 2
15 20.10 штиль 0 10 км мгла 6/4 450 м
[Cu Sc Ci sp]
+30.6 +23.8 67 +42 +53 опасность
перегрева
1011.9 1011.4
18 20.10 С 2 15 км мгла 4/3 600 м
[Cu Sc Ci sp]
+34.4 +23.2 52 +45 +56 опасность
перегрева
1008.4 1007.9
21 20.10 В 5 15 км осадки на расстоянии 8/3 600 м
[Cu med, cong Ac As Cs]
+33.6 +22.9 54 +44 +45 опасность
перегрева
1006.4 1005.9
00 21.10 штиль 0 15 км зарница 9/3 600 м
[Cb cap Ac As Cs]
+25.3 +24.3 94 +35 +35 очень
душно
1009.3 1008.8 +35.4
12 21.10 СВ 3 9000 м мгла 6/1 450 м
[Cu Sc Ac trans Cs]
+25.7 +23.9 90 +35 +36 очень
душно
1010.7 1010.2 +24.4 16
15 21.10 СВ 3 10 км мгла 3/1 450 м
[Cu Sc Ci sp]
+30.5 +24.7 71 +43 +53 опасность
перегрева
1011.8 1011.3
18 21.10 В 4 15 км мгла 5/4 450 м
[Cu med, cong Ci sp]
+33.8 +23.5 55 +45 +51 опасность
перегрева
1009.4 1008.9
21 21.10 В 3 15 км мгла 9/3 450 м
[Cu med, cong Ac As Cs]
+32.0 +24.5 65 +45 +46 опасность
перегрева
1007.2 1006.7

 

Местоположение метеостанции Valledupar (Колумбия): широта 10.43 долгота -73.25 высота над уровнем моря 138 м.

В архиве по умолчанию представлена погода в Valledupar за последнюю неделю. Архивные данные за месяц целиком и за предыдущие месяцы, начиная с января 2011 года, Вы можете получить, выбрав интересующий диапазон дат из раскрывающегося списка и нажав кнопку "Ввод!".

Внимание! Время в таблицах - всемирное. Для получения местного времени необходимо прибавить поправку, которая в Valledupar равна -5 ч.

Смотрите также архив погоды в соседних городах и на ближайших метеорологических станциях:

Погода в Riohacha (Колумбия) (127 км)
Погода в Santa Marta (Колумбия) (132 км)
Погода в Maracaibo - La Chinit (Венесуэла) (167 км)
Погода в Barranquilla (Колумбия) (175 км)
Погода в Maracaibo - La Canada (Венесуэла) (175 км)
Погода в Cartagena (Колумбия) (247 км)
Погода в Mene Grande (Венесуэла) (263 км)
Погода в El Vigia (Венесуэла) (266 км)
Погода в Cucuta (Колумбия) (290 км)
Погода в San Antonio del Tachira (Венесуэла) (300 км)

Пояснения к столбцам:

Ветер - указаны скорость ветра в м/с - средняя за 10 мин, порывы в срок и между сроками (в фигурных скобках) и направление, откуда дует ветер: С - северный, СВ - северо-восточный, В - восточный, ЮВ - юго-восточный, Ю - южный, ЮЗ - юго-западный, З - западный, СЗ - северо-западный.
Видимость - горизонтальная дальность видимости в метрах или километрах. При видимости от 1 до 10 км при отсутствии осадков обычно наблюдается дымка, при ухудшении видимости до 1 км и менее - туман. В сухую погоду видимость может ухудшаться дымом, пылью или мглою.
Явления - указаны атмосферные явления, наблюдавшиеся в срок или в последний час перед сроком; фигурными скобками обозначены явления, наблюдавшиеся между сроками (за 1-3 часа до срока); квадратными скобками обозначены град или гололедные отложения с указанием их диаметра в мм.
Облачность - указаны через наклонную черту общая и нижняя облачность в баллах и высота нижней границы облаков в метрах; квадратными скобками обозначены формы облаков: Ci - перистые, Cs - перисто-слоистые, Cc - перисто-кучевые, Ac - высококучевые, As - высокослоистые, Sc - слоисто-кучевые, Ns - слоисто-дождевые, Cu - кучевые, Cb - кучево-дождевые. Подробнее классификацию облаков см. в Атласе облаков (PDF).
T - Температура воздуха - температура, измеренная на высоте 2 м над землей.
Td - Температура точки росы - температура, при понижении до которой содержащийся в воздухе водяной пар достигнет насыщения.
f - Относительная влажность воздуха - влажноcть воздуха, измеренная на высоте 2 м над землей.
Te - Эффективная температура - температура, которую ощущает одетый по сезону человек в тени. Характеристика душности погоды. При расчете учитывается влияние влажности воздуха и скорости ветра на теплоощущения человека.
Tes - Эффективная температура на солнце - температура, которую ощущает человек, с поправкой на солнечный нагрев. Характеристика знойности погоды. Зависит от высоты солнца над горизонтом, облачности и скорости ветра. Ночью, в пасмурную погоду, а также при ветре 12 м/с и более поправка равна нулю.
P - Атмосферное давление - приведенное к уровню моря атмосферное давление.
Po - Атмосферное давление - измеренное на уровне метеостанции атмосферное давление.
Tmin - Минимальная температура - минимум температуры воздуха на высоте 2 м над землей.
Tmax - Максимальная температура - максимум температуры воздуха на высоте 2 м над землей.
R - Количество осадков - Количество выпавших осадков за период времени, мм. При наведении курсора мыши на число - период времени, за который выпало указанное количество осадков.
R24 - Количество осадков - Количество выпавших осадков за 24 часа, мм.
S - Снежный покров - Высота снежного покрова, см. При наведении курсора мыши на число - состояние снежного покрова и степень покрытия местности в баллах.